User: anonymous   Login
Location: La Comballaz
(46.3780°N, 7.0817°E)
Time: 02:45:47
(UTC+00:00)
Language:

CUBEBUG 2 - Orbit

View from above orbital plane
View from above orbital plane
View from above satellite
View from above satellite

Ground track
Ground track

The orbit data is extracted from the following two-line orbital elements,

1 39440U 13066AA  22343.47709766  .00002793  00000-0  37863-3 0  9997
2 39440  97.7502 293.9414 0076305 284.1042  75.1697 14.77700364486121
Epoch (UTC): 09 December 2022 11:27:01
Eccentricity: 0.0076305
inclination: 97.7502°
perigee height: 583 km
apogee height: 690 km
right ascension of ascending node: 293.9414°
argument of perigee: 284.1042°
revolutions per day: 14.77700364
mean anomaly at epoch: 75.1697°
orbit number at epoch: 48612

The dashed part of the orbit path shows where the satellite is in the earth's shadow,  

DLR